When you browse on this site, cookies collect data to enhance your experience and personalize the content and advertising you see.
Visit our Privacy Policy to learn more. By continuing to use the site, you agree to this use of cookies and data.
  • Em Portugal
  • Lista de países
  • Para 7 dias
  • Temperatura da água
  • Mapas de satélite
  • Mapa do tempo
  • Widgets de tempo
  • user-avatar
    Iniciar Sessão

    Previsão horária em Safaga

    Hoje, 27 Maio, Segunda-feira

    Tempo Temperatura Precipitação Vento Pressão Humidade
    00:00 +33°C° 0 mm 1 m/s 703 mmHg 18%
    01:00 +32°C° 0 mm 1 m/s 703 mmHg 19%
    02:00 +31°C° 0 mm 1 m/s 702 mmHg 20%
    03:00 +29°C° 0 mm 0 m/s 702 mmHg 21%
    04:00 +28°C° 0 mm 0 m/s 702 mmHg 21%
    05:00 +27°C° 0 mm 0 m/s 702 mmHg 22%
    06:00 +29°C° 0 mm 0 m/s 702 mmHg 19%
    07:00 +31°C° 0 mm 0 m/s 703 mmHg 17%
    08:00 +36°C° 0 mm 1 m/s 703 mmHg 14%
    09:00 +37°C° 0 mm 1 m/s 704 mmHg 12%
    10:00 +39°C° 0 mm 1 m/s 704 mmHg 10%
    11:00 +41°C° 0 mm 2 m/s 704 mmHg 8%
    12:00 +41°C° 0 mm 2 m/s 704 mmHg 8%
    13:00 +43°C° 0 mm 3 m/s 703 mmHg 7%
    14:00 +43°C° 0 mm 3 m/s 703 mmHg 7%
    15:00 +43°C° 0 mm 3 m/s 703 mmHg 8%
    16:00 +42°C° 0 mm 3 m/s 703 mmHg 9%
    17:00 +42°C° 0 mm 3 m/s 702 mmHg 10%
    18:00 +40°C° 0 mm 3 m/s 702 mmHg 11%
    19:00 +38°C° 0 mm 2 m/s 702 mmHg 13%
    20:00 +37°C° 0 mm 2 m/s 702 mmHg 14%
    21:00 +35°C° 0 mm 1 m/s 702 mmHg 14%
    22:00 +35°C° 0 mm 1 m/s 703 mmHg 15%
    23:00 +32°C° 0 mm 0 m/s 703 mmHg 15%

    Amanhã, 28 Maio, Terça-feira

    Tempo Temperatura Precipitação Vento Pressão Humidade
    00:00 +31°C° 0 mm 0 m/s 702 mmHg 15%
    01:00 +30°C° 0 mm 0 m/s 702 mmHg 15%
    02:00 +30°C° 0 mm 0 m/s 702 mmHg 15%
    03:00 +29°C° 0 mm 0 m/s 702 mmHg 15%
    04:00 +29°C° 0 mm 0 m/s 701 mmHg 15%
    05:00 +28°C° 0 mm 0 m/s 701 mmHg 15%
    06:00 +32°C° 0 mm 1 m/s 702 mmHg 14%
    07:00 +34°C° 0 mm 1 m/s 702 mmHg 12%
    08:00 +36°C° 0 mm 1 m/s 703 mmHg 11%
    09:00 +37°C° 0 mm 1 m/s 703 mmHg 10%
    10:00 +39°C° 0 mm 1 m/s 703 mmHg 9%
    11:00 +41°C° 0 mm 1 m/s 703 mmHg 8%
    12:00 +41°C° 0 mm 2 m/s 703 mmHg 8%
    13:00 +43°C° 0 mm 3 m/s 703 mmHg 8%
    14:00 +44°C° 0 mm 3 m/s 702 mmHg 7%
    15:00 +43°C° 0 mm 3 m/s 702 mmHg 8%
    16:00 +42°C° 0 mm 3 m/s 702 mmHg 8%
    17:00 +42°C° 0 mm 3 m/s 701 mmHg 8%
    18:00 +40°C° 0 mm 2 m/s 701 mmHg 9%
    19:00 +38°C° 0 mm 2 m/s 702 mmHg 10%
    20:00 +36°C° 0 mm 1 m/s 702 mmHg 11%
    21:00 +35°C° 0 mm 1 m/s 702 mmHg 11%
    22:00 +34°C° 0 mm 1 m/s 702 mmHg 12%
    23:00 +34°C° 0 mm 1 m/s 702 mmHg 13%

    Depois de amanhã, 29 Maio, Quarta-feira

    Tempo Temperatura Precipitação Vento Pressão Humidade
    00:00 +33°C° 0 mm 1 m/s 702 mmHg 12%
    01:00 +32°C° 0 mm 1 m/s 701 mmHg 12%
    02:00 +32°C° 0 mm 1 m/s 701 mmHg 12%
    03:00 +31°C° 0 mm 1 m/s 701 mmHg 13%
    04:00 +30°C° 0 mm 1 m/s 701 mmHg 13%
    05:00 +30°C° 0 mm 1 m/s 701 mmHg 14%
    06:00 +31°C° 0 mm 1 m/s 701 mmHg 13%
    07:00 +33°C° 0 mm 1 m/s 702 mmHg 12%
    08:00 +35°C° 0 mm 1 m/s 702 mmHg 11%
    09:00 +38°C° 0 mm 2 m/s 702 mmHg 10%
    10:00 +39°C° 0 mm 2 m/s 703 mmHg 9%
    11:00 +42°C° 0 mm 3 m/s 703 mmHg 8%
    12:00 +42°C° 0 mm 3 m/s 703 mmHg 8%
    13:00 +43°C° 0 mm 3 m/s 702 mmHg 8%
    14:00 +43°C° 0 mm 3 m/s 702 mmHg 8%
    15:00 +43°C° 0 mm 3 m/s 702 mmHg 9%
    16:00 +42°C° 0 mm 4 m/s 701 mmHg 9%
    17:00 +41°C° 0 mm 4 m/s 701 mmHg 10%
    18:00 +39°C° 0 mm 3 m/s 701 mmHg 12%
    19:00 +38°C° 0 mm 3 m/s 701 mmHg 13%
    20:00 +36°C° 0 mm 2 m/s 701 mmHg 15%
    21:00 +36°C° 0 mm 2 m/s 701 mmHg 15%
    22:00 +35°C° 0 mm 2 m/s 701 mmHg 15%
    23:00 +34°C° 0 mm 2 m/s 701 mmHg 16%

    30 Maio, Quinta-feira

    Tempo Temperatura Precipitação Vento Pressão Humidade
    00:00 +34°C° 0 mm 2 m/s 701 mmHg 15%
    01:00 +32°C° 0 mm 2 m/s 701 mmHg 15%
    02:00 +32°C° 0 mm 2 m/s 701 mmHg 15%
    03:00 +31°C° 0 mm 2 m/s 701 mmHg 16%
    04:00 +31°C° 0 mm 2 m/s 701 mmHg 17%
    05:00 +30°C° 0 mm 2 m/s 701 mmHg 18%
    06:00 +32°C° 0 mm 2 m/s 701 mmHg 16%
    07:00 +35°C° 0 mm 2 m/s 702 mmHg 14%
    08:00 +37°C° 0 mm 3 m/s 702 mmHg 13%
    09:00 +38°C° 0 mm 3 m/s 702 mmHg 12%
    10:00 +40°C° 0 mm 3 m/s 703 mmHg 10%
    11:00 +42°C° 0 mm 3 m/s 703 mmHg 9%
    12:00 +43°C° 0 mm 3 m/s 702 mmHg 9%
    13:00 +43°C° 0 mm 3 m/s 702 mmHg 9%
    14:00 +44°C° 0 mm 3 m/s 701 mmHg 8%
    15:00 +43°C° 0 mm 4 m/s 701 mmHg 9%
    16:00 +43°C° 0 mm 4 m/s 701 mmHg 10%
    17:00 +42°C° 0 mm 5 m/s 701 mmHg 11%
    18:00 +41°C° 0 mm 4 m/s 701 mmHg 13%
    19:00 +38°C° 0 mm 4 m/s 701 mmHg 14%
    20:00 +37°C° 0 mm 3 m/s 701 mmHg 16%
    21:00 +36°C° 0 mm 3 m/s 701 mmHg 16%
    22:00 +36°C° 0 mm 3 m/s 701 mmHg 16%
    23:00 +35°C° 0 mm 3 m/s 701 mmHg 16%

    31 Maio, Sexta-feira

    Tempo Temperatura Precipitação Vento Pressão Humidade
    00:00 +34°C° 0 mm 3 m/s 701 mmHg 17%
    01:00 +34°C° 0 mm 3 m/s 701 mmHg 17%
    02:00 +32°C° 0 mm 2 m/s 700 mmHg 17%
    03:00 +31°C° 0 mm 2 m/s 700 mmHg 18%
    04:00 +31°C° 0 mm 2 m/s 700 mmHg 18%
    05:00 +30°C° 0 mm 2 m/s 700 mmHg 18%
    06:00 +32°C° 0 mm 2 m/s 701 mmHg 16%
    07:00 +35°C° 0 mm 3 m/s 702 mmHg 15%
    08:00 +37°C° 0 mm 3 m/s 702 mmHg 13%
    09:00 +38°C° 0 mm 3 m/s 702 mmHg 12%
    10:00 +40°C° 0 mm 3 m/s 702 mmHg 11%
    11:00 +42°C° 0 mm 3 m/s 702 mmHg 10%
    12:00 +42°C° 0 mm 4 m/s 702 mmHg 10%
    13:00 +43°C° 0 mm 4 m/s 701 mmHg 10%
    14:00 +44°C° 0 mm 4 m/s 701 mmHg 10%
    15:00 +43°C° 0 mm 4 m/s 701 mmHg 11%
    16:00 +42°C° 0 mm 5 m/s 701 mmHg 11%
    17:00 +42°C° 0 mm 5 m/s 700 mmHg 12%
    18:00 +40°C° 0 mm 5 m/s 700 mmHg 13%
    19:00 +39°C° 0 mm 5 m/s 700 mmHg 14%
    20:00 +37°C° 0 mm 4 m/s 701 mmHg 15%
    21:00 +36°C° 0 mm 4 m/s 701 mmHg 15%
    22:00 +35°C° 0 mm 3 m/s 701 mmHg 15%
    23:00 +34°C° 0 mm 3 m/s 701 mmHg 16%

    1 Junho, Sábado

    Tempo Temperatura Precipitação Vento Pressão Humidade
    00:00 +34°C° 0 mm 2 m/s 700 mmHg 16%
    01:00 +32°C° 0 mm 2 m/s 700 mmHg 16%
    02:00 +32°C° 0 mm 1 m/s 700 mmHg 17%
    03:00 +31°C° 0 mm 2 m/s 700 mmHg 17%
    04:00 +30°C° 0 mm 2 m/s 700 mmHg 18%
    05:00 +30°C° 0 mm 2 m/s 700 mmHg 19%
    06:00 +32°C° 0 mm 2 m/s 701 mmHg 17%
    07:00 +35°C° 0 mm 2 m/s 701 mmHg 15%
    08:00 +36°C° 0 mm 3 m/s 702 mmHg 12%
    09:00 +38°C° 0 mm 3 m/s 702 mmHg 12%
    10:00 +40°C° 0 mm 4 m/s 702 mmHg 11%
    11:00 +42°C° 0 mm 4 m/s 702 mmHg 10%
    12:00 +42°C° 0 mm 4 m/s 702 mmHg 10%
    13:00 +43°C° 0 mm 4 m/s 701 mmHg 9%
    14:00 +43°C° 0 mm 4 m/s 701 mmHg 9%
    15:00 +42°C° 0 mm 5 m/s 701 mmHg 10%
    16:00 +42°C° 0 mm 5 m/s 701 mmHg 11%
    17:00 +41°C° 0 mm 6 m/s 700 mmHg 11%
    18:00 +40°C° 0 mm 5 m/s 701 mmHg 13%
    19:00 +37°C° 0 mm 4 m/s 701 mmHg 14%
    20:00 +36°C° 0 mm 4 m/s 701 mmHg 15%
    21:00 +35°C° 0 mm 3 m/s 701 mmHg 16%
    22:00 +35°C° 0 mm 3 m/s 701 mmHg 16%
    23:00 +34°C° 0 mm 2 m/s 701 mmHg 16%
    Mostrar mais